FW2297 Weather Reports


Display with metric or nautical units.
time (UTC)temp
F
wind
direction
speed
MPH
gust
MPH
rain 1hr
in
rain 24hr
in
rain mn
in
humidity
%
barometer
mb
20260905230552 60 0 0.0 0.0 0.04 0.36 0.36 94 1012.9
20260905230109 60 0 0.0 0.0 0.04 0.36 0.36 94 1012.7
20260905225600 60 0 0.0 0.0 0.04 0.36 0.36 93 1012.7
20260905225051 60 0 0.0 0.0 0.06 0.36 0.36 93 1012.7
20260905224602 60 0 0.0 0.0 0.07 0.36 0.36 93 1012.8
20260905224052 60 0 0.0 0.0 0.08 0.36 0.36 93 1012.8
20260905223551 60 0 0.0 0.0 0.12 0.36 0.36 93 1012.7
20260905223100 60 0 0.0 0.0 0.15 0.36 0.36 93 1012.7
20260905222553 60 0 0.0 0.0 0.15 0.35 0.35 93 1012.7
20260905222051 60 0 0.0 0.0 0.17 0.35 0.35 93 1012.8
20260905221555 60 0 0.0 0.0 0.18 0.34 0.34 93 1012.7
20260905221048 60 0 0.0 0.0 0.19 0.33 0.33 92 1012.8
20260905220547 60 0 0.0 0.0 0.20 0.32 0.32 92 1012.6
20260905220109 60 0 0.0 0.0 0.24 0.32 0.32 92 1012.5
20260905215551 60 0 0.0 0.0 0.25 0.32 0.32 92 1012.5
20260905215050 60 0 0.0 0.0 0.23 0.30 0.30 92 1012.3
20260905214602 60 0 0.0 0.0 0.22 0.29 0.29 91 1012.1
20260905214051 60 0 0.0 0.0 0.21 0.28 0.28 91 1012.1
20260905213555 60 0 0.0 0.0 0.18 0.24 0.24 91 1012.1
20260905213110 60 0 0.0 0.0 0.15 0.21 0.21 91 1012.2
20260905212552 61 0 0.0 1.0 0.16 0.20 0.20 91 1012.1
20260905212052 61 0 0.0 1.0 0.14 0.18 0.18 90 1011.9
20260905211619 61 0 0.0 4.0 0.15 0.16 0.16 90 1011.8
20260905211052 61 0 0.0 8.0 0.13 0.14 0.14 89 1011.8
20260905210554 62 108 0.0 12.0 0.11 0.12 0.12 88 1011.6
20260905210121 62 0 0.0 12.0 0.07 0.08 0.08 87 1011.6
20260905205551 63 0 0.0 9.0 0.06 0.07 0.07 87 1011.4
20260905205055 63 0 1.0 9.0 0.06 0.07 0.07 87 1011.4
20260905204618 64 0 0.0 9.0 0.06 0.07 0.07 87 1011.3
20260905204051 64 86 0.0 9.0 0.06 0.07 0.07 86 1011.3
20260905203551 65 85 1.0 9.0 0.05 0.06 0.06 85 1011.3
20260905203111 66 0 0.0 9.0 0.05 0.06 0.06 84 1011.1
20260905202550 67 83 1.0 9.0 0.03 0.04 0.04 81 1011.3
20260905202051 68 0 0.0 7.0 0.03 0.04 0.04 79 1011.3
20260905201606 69 0 1.0 9.0 0.00 0.01 0.01 77 1011.1
20260905201051 70 0 0.0 9.0 0.00 0.01 0.01 74 1011.1
20260905200551 70 0 0.0 4.0 0.01 0.01 0.01 72 1011.2
20260905200107 70 0 0.0 4.0 0.01 0.01 0.01 71 1011.1
20260905195552 70 0 0.0 0.0 0.01 0.01 0.01 74 1011.1
20260905195051 69 0 0.0 0.0 0.01 0.01 0.01 74 1011.0
20260905194605 69 0 0.0 5.0 0.01 0.01 0.01 73 1011.0
20260905194050 70 0 0.0 5.0 0.01 0.01 0.01 74 1011.1
20260905193551 69 0 0.0 0.0 0.01 0.01 0.01 79 1011.0
20260905193110 68 0 0.0 0.0 0.01 0.01 0.01 80 1011.0
20260905192552 68 0 0.0 0.0 0.01 0.01 0.01 80 1011.1
20260905192136 68 0 0.0 0.0 0.01 0.01 0.01 79 1011.0
20260905191606 68 0 0.0 0.0 0.01 0.01 0.01 77 1011.2
20260905191131 69 0 0.0 2.0 0.01 0.01 0.01 78 1011.1
20260905190552 70 0 0.0 2.0 0.00 0.00 0.00 76 1011.1
20260905190103 70 0 0.0 5.0 0.00 0.00 0.00 74 1011.0
20260905185552 70 0 0.0 5.0 0.00 0.00 0.00 75 1011.0
20260905185051 69 262 0.0 4.0 0.00 0.00 0.00 75 1011.1
20260905184611 69 0 0.0 0.0 0.00 0.00 0.00 75 1010.9
20260905184138 69 0 0.0 0.0 0.00 0.00 0.00 74 1011.0
20260905183551 69 0 0.0 0.0 0.00 0.00 0.00 73 1011.0
20260905183059 69 0 0.0 0.0 0.00 0.00 0.00 74 1010.9
20260905182552 69 0 0.0 2.0 0.00 0.00 0.00 75 1011.0
20260905182052 68 0 0.0 2.0 0.00 0.00 0.00 74 1011.1
20260905181605 69 0 0.0 2.0 0.00 0.00 0.00 75 1011.0
20260905181051 68 0 0.0 2.0 0.00 0.00 0.00 76 1011.2
20260905180555 68 0 0.0 0.0 0.00 0.00 0.00 78 1011.2
20260905180108 68 0 0.0 0.0 0.00 0.00 0.00 76 1011.2
20260905175551 68 0 0.0 0.0 0.00 0.00 0.00 77 1011.2
20260905175145 68 0 0.0 0.0 0.00 0.00 0.00 79 1011.2
20260905174604 67 0 0.0 0.0 0.00 0.00 0.00 78 1011.2
20260905174052 67 0 0.0 0.0 0.00 0.00 0.00 78 1011.1
20260905173551 67 0 0.0 0.0 0.00 0.00 0.00 78 1011.0
20260905173103 67 0 0.0 5.0 0.00 0.00 0.00 78 1011.1
20260905172552 67 0 0.0 5.0 0.00 0.00 0.00 80 1011.0
20260905172052 66 0 0.0 5.0 0.00 0.00 0.00 81 1011.1
20260905171602 66 0 0.0 1.0 0.00 0.00 0.00 83 1011.1
20260905171053 65 0 0.0 4.0 0.00 0.00 0.00 82 1011.1
20260905170552 65 0 0.0 4.0 0.00 0.00 0.00 83 1011.0
20260905170112 65 0 0.0 4.0 0.00 0.00 0.00 83 1011.1
20260905165551 64 0 0.0 4.0 0.00 0.00 0.00 83 1011.0
20260905165053 64 0 0.0 4.0 0.00 0.00 0.00 83 1011.1
20260905164559 64 0 0.0 4.0 0.00 0.00 0.00 84 1011.0
20260905164052 64 0 0.0 6.0 0.00 0.00 0.00 85 1011.1
20260905163551 64 0 0.0 6.0 0.00 0.00 0.00 83 1011.0
20260905163058 65 0 0.0 6.0 0.00 0.00 0.00 83 1011.0
20260905162556 65 0 0.0 0.0 0.00 0.00 0.00 82 1011.1
20260905162053 65 0 0.0 5.0 0.00 0.00 0.00 82 1011.1
20260905161600 66 0 0.0 5.0 0.00 0.00 0.00 80 1011.1
20260905161052 67 0 0.0 5.0 0.00 0.00 0.00 79 1011.1
20260905160556 68 0 0.0 3.0 0.00 0.00 0.00 78 1011.2
20260905160059 69 0 0.0 0.0 0.00 0.00 0.00 77 1011.1
20260905155551 69 0 0.0 0.0 0.00 0.00 0.00 75 1011.1
20260905155052 69 0 0.0 0.0 0.00 0.00 0.00 73 1011.0
20260905154603 70 0 0.0 0.0 0.00 0.00 0.00 72 1010.9
20260905154052 70 0 0.0 0.0 0.00 0.00 0.00 70 1011.0
20260905153552 70 0 0.0 0.0 0.00 0.00 0.00 71 1010.9
20260905153103 70 0 0.0 0.0 0.00 0.00 0.00 69 1010.8
20260905152552 70 0 0.0 0.0 0.00 0.00 0.00 69 1010.8
20260905152052 69 0 0.0 0.0 0.00 0.00 0.00 69 1010.8
20260905151603 69 0 0.0 0.0 0.00 0.00 0.00 68 1010.7
20260905151052 70 0 0.0 0.0 0.00 0.00 0.00 71 1010.8
20260905150552 70 0 0.0 0.0 0.00 0.00 0.00 69 1010.8
20260905150059 70 0 0.0 0.0 0.00 0.00 0.00 67 1010.7
20260905145551 70 0 0.0 0.0 0.00 0.00 0.00 68 1010.7
20260905145055 70 0 0.0 4.0 0.00 0.00 0.00 67 1010.7
20260905144604 70 0 0.0 4.0 0.00 0.00 0.00 69 1010.6
20260905144053 70 31 0.0 2.0 0.00 0.00 0.00 69 1010.7
20260905143551 70 0 0.0 3.0 0.00 0.00 0.00 69 1010.4
20260905143105 70 0 0.0 4.0 0.00 0.00 0.00 66 1010.4
20260905142551 70 0 0.0 4.0 0.00 0.00 0.00 65 1010.6
20260905142054 70 0 0.0 4.0 0.00 0.00 0.00 66 1010.5
20260905141600 71 0 0.0 1.0 0.00 0.00 0.00 66 1010.4
20260905141055 71 0 0.0 4.0 0.00 0.00 0.00 66 1010.4
20260905140551 70 0 0.0 5.0 0.00 0.00 0.00 66 1010.3
20260905140112 69 0 0.0 5.0 0.00 0.00 0.00 68 1010.4
20260905135551 69 0 0.0 2.0 0.00 0.00 0.00 67 1010.2
20260905135051 69 0 0.0 1.0 0.00 0.00 0.00 66 1010.3
20260905134611 69 0 0.0 5.0 0.00 0.00 0.00 66 1010.1
20260905134055 69 0 0.0 5.0 0.00 0.00 0.00 67 1010.1
20260905133550 69 0 0.0 0.0 0.00 0.00 0.00 68 1010.1
20260905133105 69 0 0.0 1.0 0.00 0.00 0.00 68 1010.1
20260905132552 69 0 0.0 3.0 0.00 0.00 0.00 69 1010.0
20260905132052 68 0 0.0 5.0 0.00 0.00 0.00 71 1010.0
20260905131601 68 0 0.0 5.0 0.00 0.00 0.00 71 1010.0
20260905131051 68 0 0.0 2.0 0.00 0.00 0.00 71 1010.1
20260905130552 68 0 0.0 0.0 0.00 0.00 0.00 75 1010.1
20260905130101 67 0 0.0 0.0 0.00 0.00 0.00 75 1009.9
20260905125554 67 0 0.0 0.0 0.00 0.00 0.00 76 1010.0
20260905125051 67 0 0.0 0.0 0.00 0.00 0.00 76 1009.9
20260905124601 66 0 0.0 1.0 0.00 0.00 0.00 77 1009.8
20260905124052 66 0 0.0 1.0 0.00 0.00 0.00 78 1009.8
20260905123551 66 0 0.0 1.0 0.00 0.00 0.00 79 1009.9
20260905123105 65 0 0.0 0.0 0.00 0.00 0.00 81 1009.9
20260905122551 65 0 0.0 3.0 0.00 0.00 0.00 82 1010.0
20260905122052 64 0 0.0 3.0 0.00 0.00 0.00 84 1009.9
20260905121602 63 0 0.0 3.0 0.00 0.00 0.00 88 1010.2
20260905121052 62 0 0.0 0.0 0.00 0.00 0.00 90 1010.1
20260905120552 61 0 0.0 0.0 0.00 0.00 0.00 91 1010.1
20260905120107 61 0 0.0 0.0 0.00 0.00 0.00 91 1009.9
20260905115555 61 0 0.0 0.0 0.00 0.00 0.00 91 1009.8
20260905115053 61 0 0.0 0.0 0.00 0.00 0.00 92 1009.7
20260905114601 61 0 0.0 0.0 0.00 0.00 0.00 92 1009.8
20260905114052 61 0 0.0 0.0 0.00 0.00 0.00 92 1009.8
20260905113552 61 0 0.0 0.0 0.00 0.00 0.00 92 1009.7
20260905113106 61 0 0.0 0.0 0.00 0.00 0.00 92 1009.7
20260905112551 60 0 0.0 0.0 0.00 0.00 0.00 92 1009.5
20260905112051 60 0 0.0 0.0 0.00 0.00 0.00 92 1009.7
20260905111646 61 0 0.0 0.0 0.00 0.00 0.00 92 1009.6
20260905111051 61 0 0.0 0.0 0.00 0.00 0.00 91 1009.7
20260905110551 61 0 0.0 0.0 0.00 0.00 0.00 91 1009.4
20260905110101 60 0 0.0 0.0 0.00 0.00 0.00 91 1009.4
20260905105551 60 0 0.0 0.0 0.00 0.00 0.00 91 1009.5
20260905105051 60 0 0.0 0.0 0.00 0.00 0.00 92 1009.4
20260905105016 60 0 0.0 3.0 0.00 0.00 0.00 92 1009.3
20260905102554 60 0 0.0 0.0 0.00 0.00 0.00 92 1009.1
20260905102051 60 0 0.0 0.0 0.00 0.00 0.00 93 1009.2
20260905101557 60 0 0.0 0.0 0.00 0.00 0.00 93 1009.2
20260905101051 60 0 0.0 0.0 0.00 0.00 0.00 93 1009.4
20260905100550 60 0 0.0 0.0 0.00 0.00 0.00 93 1009.2
20260905100110 60 0 0.0 0.0 0.00 0.00 0.00 93 1009.2
20260905095550 60 0 0.0 0.0 0.00 0.00 0.00 94 1009.1
20260905095054 60 0 0.0 0.0 0.00 0.00 0.00 94 1009.2
20260905094558 60 0 0.0 0.0 0.00 0.00 0.00 94 1009.2
20260905094051 60 0 0.0 0.0 0.00 0.00 0.00 94 1009.2
20260905093551 60 0 0.0 0.0 0.00 0.00 0.00 94 1009.1
20260905093101 60 0 0.0 0.0 0.00 0.00 0.00 94 1009.1
20260905092550 59 0 0.0 0.0 0.00 0.00 0.00 95 1009.1
20260905092050 59 0 0.0 0.0 0.00 0.00 0.00 95 1009.1
20260905091610 59 0 0.0 0.0 0.00 0.00 0.00 94 1009.0
20260905091051 59 0 0.0 0.0 0.00 0.00 0.00 95 1009.0
20260905090550 59 0 0.0 0.0 0.00 0.00 0.00 95 1009.0
20260905090103 58 0 0.0 0.0 0.00 0.00 0.00 94 1008.8
20260905085551 58 0 0.0 0.0 0.00 0.00 0.00 94 1008.8
20260905085058 58 0 0.0 0.0 0.00 0.00 0.00 94 1008.9
20260905084600 58 0 0.0 0.0 0.00 0.00 0.00 94 1008.9
20260905084053 58 0 0.0 0.0 0.00 0.00 0.00 94 1009.0
20260905083552 58 0 0.0 0.0 0.00 0.00 0.00 94 1008.9
20260905083058 58 0 0.0 0.0 0.00 0.00 0.00 93 1008.8
20260905082551 58 0 0.0 0.0 0.00 0.00 0.00 93 1008.8
20260905082051 58 0 0.0 0.0 0.00 0.00 0.00 93 1008.8
20260905081606 58 0 0.0 0.0 0.00 0.00 0.00 93 1008.8
20260905081050 58 0 0.0 0.0 0.00 0.00 0.00 93 1008.8
20260905080550 58 0 0.0 0.0 0.00 0.00 0.00 93 1008.8
20260905080104 59 0 0.0 0.0 0.00 0.00 0.00 93 1008.9
20260905075551 59 0 0.0 0.0 0.00 0.00 0.00 94 1008.8
20260905075050 59 0 0.0 0.0 0.00 0.00 0.00 94 1008.7
20260905074600 59 0 0.0 0.0 0.00 0.00 0.00 94 1008.9
20260905074051 59 0 0.0 0.0 0.00 0.00 0.00 94 1008.8
20260905073550 59 0 0.0 0.0 0.00 0.00 0.00 94 1009.0
20260905073103 59 0 0.0 0.0 0.00 0.00 0.00 94 1008.8
20260905072555 59 0 0.0 0.0 0.00 0.00 0.00 94 1008.8
20260905072118 59 0 0.0 0.0 0.00 0.00 0.00 94 1008.9
20260905071603 58 0 0.0 0.0 0.00 0.00 0.00 94 1009.1
20260905071050 58 0 0.0 0.0 0.00 0.00 0.00 93 1009.1
20260905070550 58 0 0.0 0.0 0.00 0.00 0.00 93 1009.3
20260905070100 58 0 0.0 0.0 0.00 0.00 0.00 93 1009.3
20260905065551 58 0 0.0 0.0 0.00 0.00 0.00 93 1009.3
20260905065050 58 0 0.0 0.0 0.00 0.00 0.00 92 1009.3
20260905064602 58 0 0.0 0.0 0.00 0.00 0.00 92 1009.3
20260905064050 59 0 0.0 0.0 0.00 0.00 0.00 92 1009.4
20260905063551 59 0 0.0 0.0 0.00 0.00 0.00 92 1009.2
20260905063102 59 0 0.0 0.0 0.00 0.00 0.00 92 1009.3
20260905062554 59 0 0.0 0.0 0.00 0.00 0.00 92 1009.2
20260905062051 59 0 0.0 0.0 0.00 0.00 0.00 92 1009.2
20260905061612 59 0 0.0 0.0 0.00 0.00 0.00 92 1009.3
20260905061051 59 0 0.0 0.0 0.00 0.00 0.00 92 1009.3
20260905060550 59 0 0.0 0.0 0.00 0.00 0.00 92 1009.2
20260905060101 59 0 0.0 0.0 0.00 0.00 0.00 93 1009.1
20260905055550 59 0 0.0 0.0 0.00 0.00 0.00 92 1009.2
20260905055051 59 0 0.0 0.0 0.00 0.00 0.00 92 1009.1
20260905054600 59 0 0.0 0.0 0.00 0.00 0.00 92 1009.3
20260905054051 59 0 0.0 0.0 0.00 0.00 0.00 92 1009.3
20260905053551 59 0 0.0 0.0 0.00 0.00 0.00 92 1009.4
20260905053104 59 0 0.0 0.0 0.00 0.00 0.00 92 1009.4
20260905052550 59 0 0.0 0.0 0.00 0.00 0.00 92 1009.5
20260905052050 59 0 0.0 0.0 0.00 0.00 0.00 91 1009.6
20260905051559 59 0 0.0 0.0 0.00 0.00 0.00 91 1009.6
20260905051050 59 0 0.0 0.0 0.00 0.00 0.00 91 1009.6
20260905050551 59 0 0.0 0.0 0.00 0.00 0.00 90 1009.6
20260905050059 59 0 0.0 0.0 0.00 0.00 0.00 90 1009.7
20260905045549 60 0 0.0 0.0 0.00 0.00 0.00 89 1009.6
20260905045051 60 0 0.0 0.0 0.00 0.00 0.00 89 1009.7
20260905044607 60 0 0.0 0.0 0.00 0.00 0.00 88 1009.6
20260905044051 60 0 0.0 0.0 0.00 0.00 0.00 88 1009.6
20260905043548 61 0 0.0 0.0 0.00 0.00 0.00 88 1009.7
20260905043101 61 0 0.0 0.0 0.00 0.00 0.00 87 1009.6
20260905042548 61 0 0.0 0.0 0.00 0.00 0.00 86 1009.6
20260905042051 62 0 0.0 0.0 0.00 0.00 0.00 86 1009.6
20260905041559 62 0 0.0 0.0 0.00 0.00 0.00 85 1009.6
20260905041050 62 0 0.0 0.0 0.00 0.00 0.00 84 1009.6
20260905040551 63 0 0.0 0.0 0.00 0.00 0.00 83 1009.6
20260905040056 64 0 0.0 0.0 0.00 0.00 0.00 82 1009.7
20260905035550 64 0 0.0 2.0 0.00 0.00 0.00 81 1009.6
20260905035048 64 0 0.0 2.0 0.00 0.00 0.00 81 1009.6
20260905034607 65 0 0.0 0.0 0.00 0.00 0.00 80 1009.4
20260905034050 65 0 0.0 3.0 0.00 0.00 0.00 80 1009.4
20260905033551 65 0 0.0 3.0 0.00 0.00 0.00 80 1009.4
20260905033105 65 259 0.0 0.0 0.00 0.00 0.00 80 1009.6
20260905032552 65 0 0.0 0.0 0.00 0.00 0.00 80 1009.6
20260905032049 64 0 0.0 1.0 0.00 0.00 0.00 80 1009.6
20260905031604 64 0 0.0 1.0 0.00 0.00 0.00 81 1009.6
20260905031049 64 0 0.0 0.0 0.00 0.00 0.00 81 1009.7
20260905030549 64 0 0.0 0.0 0.00 0.00 0.00 82 1009.7
20260905030123 64 0 0.0 0.0 0.00 0.00 0.00 82 1009.7
20260905025548 64 0 0.0 0.0 0.00 0.00 0.00 81 1009.8
20260905025051 65 0 0.0 0.0 0.00 0.00 0.00 81 1010.0
20260905024559 65 0 0.0 0.0 0.00 0.00 0.00 81 1010.0
20260905024049 64 0 0.0 0.0 0.00 0.00 0.00 81 1009.8
20260905023552 64 0 0.0 0.0 0.00 0.00 0.00 81 1010.1
20260905023105 64 0 0.0 0.0 0.00 0.00 0.00 81 1009.8
20260905022548 65 0 0.0 0.0 0.00 0.00 0.00 81 1009.9
20260905022048 65 0 0.0 0.0 0.00 0.00 0.00 80 1009.7
20260905021602 65 0 0.0 0.0 0.00 0.00 0.00 79 1009.8
20260905021051 66 0 0.0 0.0 0.00 0.00 0.00 78 1009.9
20260905020551 66 0 0.0 0.0 0.00 0.00 0.00 78 1009.9
20260905020108 66 0 0.0 0.0 0.00 0.00 0.00 78 1009.8
20260905015548 66 0 0.0 0.0 0.00 0.00 0.00 78 1009.7
20260905015054 66 0 0.0 4.0 0.00 0.00 0.00 77 1009.8
20260905014600 66 0 0.0 4.0 0.00 0.00 0.00 77 1009.9
20260905014051 66 0 0.0 4.0 0.00 0.00 0.00 76 1009.9
20260905013549 66 0 0.0 5.0 0.00 0.00 0.00 76 1009.7
20260905013108 66 0 0.0 6.0 0.00 0.00 0.00 76 1009.4
20260905012550 66 0 1.0 6.0 0.00 0.00 0.00 76 1009.4
20260905012050 66 0 0.0 4.0 0.00 0.00 0.00 76 1009.6
20260905011603 66 0 0.0 1.0 0.00 0.00 0.00 76 1009.7
20260905011051 67 0 0.0 6.0 0.00 0.00 0.00 75 1009.9
20260905010551 67 0 0.0 6.0 0.00 0.00 0.00 75 1009.8
20260905010114 67 0 0.0 5.0 0.00 0.00 0.00 75 1009.8
20260905005550 67 0 0.0 5.0 0.00 0.00 0.00 75 1010.0
20260905005050 67 0 0.0 1.0 0.00 0.00 0.00 74 1010.0
20260905004614 67 0 0.0 1.0 0.00 0.00 0.00 74 1009.9
20260905004050 67 0 0.0 1.0 0.00 0.00 0.00 73 1009.9
20260905003550 67 0 0.0 2.0 0.00 0.00 0.00 74 1009.8
20260905003058 67 0 0.0 2.0 0.00 0.00 0.00 74 1009.9
20260905002550 68 0 0.0 0.0 0.00 0.00 0.00 74 1010.0
20260905002050 68 0 0.0 1.0 0.00 0.00 0.00 74 1010.0
20260905001555 68 0 0.0 1.0 0.00 0.00 0.00 74 1009.9
20260905001052 68 0 0.0 2.0 0.00 0.00 0.00 73 1009.9
20260905000551 68 0 0.0 2.0 0.00 0.00 0.00 73 1010.0
20260905000104 68 0 0.0 2.0 0.00 0.00 0.00 72 1010.0
20260904235551 69 0 0.0 6.0 0.00 0.00 0.00 72 1009.9
20260904235050 69 0 0.0 6.0 0.00 0.00 0.00 72 1009.9
20260904234603 69 0 0.0 6.0 0.00 0.00 0.00 71 1009.8
20260904234155 69 0 0.0 3.0 0.00 0.00 0.00 71 1009.7
20260904234104 69 0 0.0 3.0 0.00 0.00 0.00 71 1009.7
20260904233552 69 0 0.0 2.0 0.00 0.00 0.00 71 1009.7
20260904233106 69 0 0.0 4.0 0.00 0.00 0.00 70 1009.7
20260904232552 69 0 0.0 4.0 0.00 0.00 0.00 70 1009.7
20260904232052 70 0 0.0 4.0 0.00 0.00 0.00 69 1009.6
20260904231601 70 359 0.0 3.0 0.00 0.00 0.00 69 1009.6
20260904231051 70 0 0.0 3.0 0.00 0.00 0.00 69 1009.7